When you browse on this site, cookies collect data to enhance your experience and personalize the content and advertising you see.
Visit our Privacy Policy to learn more. By continuing to use the site, you agree to this use of cookies and data.
  • In Österreich
  • Länderverzeichnis
  • Für 7 Tage
  • Wassertemperatur
  • Satellitenkarten
  • Wetterkarte
  • News
  • Widgets
  • user-avatar
    Anmelden

    Stündliche Wetter Finevo

    Heute, 18 Februar, Montag

    Zeit Temperatur Niederschläge Wind Luftdruck Luftfeuchtigkeit
    00:00 -5°C° 0 mm 4 m/S 743 mmHg 80%
    01:00 -7°C° 0 mm 4 m/S 744 mmHg 81%
    02:00 -6°C° 0 mm 3 m/S 745 mmHg 82%
    03:00 -7°C° 0 mm 3 m/S 745 mmHg 83%
    04:00 -7°C° 0 mm 3 m/S 746 mmHg 85%
    05:00 -7°C° 0 mm 3 m/S 746 mmHg 86%
    06:00 -7°C° 0 mm 2 m/S 747 mmHg 87%
    07:00 -7°C° 0 mm 2 m/S 747 mmHg 88%
    08:00 -7°C° 0 mm 2 m/S 748 mmHg 88%
    09:00 -6°C° 0 mm 2 m/S 748 mmHg 85%
    10:00 -5°C° 0 mm 2 m/S 749 mmHg 82%
    11:00 -4°C° 0 mm 2 m/S 749 mmHg 78%
    12:00 -4°C° 0 mm 2 m/S 749 mmHg 75%
    13:00 -1°C° 0 mm 1 m/S 749 mmHg 72%
    14:00 -1°C° 0 mm 1 m/S 749 mmHg 69%
    15:00 -2°C° 0 mm 1 m/S 749 mmHg 73%
    16:00 -3°C° 0 mm 1 m/S 749 mmHg 76%
    17:00 -5°C° 0 mm 0 m/S 749 mmHg 80%
    18:00 -4°C° 0 mm 1 m/S 749 mmHg 80%
    19:00 -4°C° 0 mm 1 m/S 749 mmHg 81%
    20:00 -4°C° 0 mm 1 m/S 749 mmHg 82%
    21:00 -6°C° 0 mm 2 m/S 748 mmHg 81%
    22:00 -6°C° 0 mm 2 m/S 748 mmHg 81%
    23:00 -7°C° 0 mm 3 m/S 748 mmHg 80%

    Morgen, 19 Februar, Dienstag

    Zeit Temperatur Niederschläge Wind Luftdruck Luftfeuchtigkeit
    00:00 -7°C° 0 mm 3 m/S 748 mmHg 79%
    01:00 -7°C° 0 mm 3 m/S 747 mmHg 78%
    02:00 -7°C° 0 mm 4 m/S 747 mmHg 76%
    03:00 -7°C° 0 mm 4 m/S 746 mmHg 75%
    04:00 -7°C° 0 mm 4 m/S 746 mmHg 74%
    05:00 -7°C° 0 mm 4 m/S 745 mmHg 74%
    06:00 -7°C° 0 mm 4 m/S 745 mmHg 76%
    07:00 -5°C° 0 mm 4 m/S 744 mmHg 77%
    08:00 -6°C° 0 mm 5 m/S 744 mmHg 79%
    09:00 -5°C° 0 mm 5 m/S 743 mmHg 78%
    10:00 -4°C° 0 mm 5 m/S 743 mmHg 77%
    11:00 -1°C° 0 mm 5 m/S 742 mmHg 76%
    12:00 -1°C° 0 mm 5 m/S 742 mmHg 76%
    13:00 -1°C° 0 mm 5 m/S 741 mmHg 76%
    14:00 0°C° 0 mm 5 m/S 741 mmHg 76%
    15:00 -1°C° 0 mm 5 m/S 740 mmHg 78%
    16:00 -1°C° 0 mm 5 m/S 739 mmHg 80%
    17:00 -2°C° 0 mm 5 m/S 739 mmHg 82%
    18:00 -2°C° 0 mm 5 m/S 738 mmHg 84%
    19:00 -2°C° 0 mm 5 m/S 738 mmHg 86%
    20:00 -2°C° 0 mm 5 m/S 737 mmHg 87%
    21:00 -2°C° 0 mm 5 m/S 737 mmHg 88%
    22:00 -1°C° 0 mm 5 m/S 736 mmHg 89%
    23:00 -1°C° 0 mm 5 m/S 735 mmHg 90%

    übermorgen, 20 Februar, Mittwoch

    Zeit Temperatur Niederschläge Wind Luftdruck Luftfeuchtigkeit
    00:00 -1°C° 0 mm 5 m/S 735 mmHg 90%
    01:00 -1°C° 0 mm 5 m/S 734 mmHg 91%
    02:00 -1°C° 0 mm 4 m/S 734 mmHg 91%
    03:00 -1°C° 0.3 mm 5 m/S 733 mmHg 91%
    04:00 -1°C° 0.3 mm 5 m/S 733 mmHg 91%
    05:00 -1°C° 0.3 mm 5 m/S 732 mmHg 91%
    06:00 0°C° 0.3 mm 5 m/S 732 mmHg 91%
    07:00 0°C° 0.3 mm 4 m/S 732 mmHg 92%
    08:00 0°C° 0.3 mm 4 m/S 733 mmHg 93%
    09:00 0°C° 0.1 mm 4 m/S 733 mmHg 90%
    10:00 0°C° 0.1 mm 4 m/S 733 mmHg 87%
    11:00 +1°C° 0.1 mm 5 m/S 733 mmHg 83%
    12:00 +1°C° 0.2 mm 5 m/S 732 mmHg 84%
    13:00 +1°C° 0.2 mm 5 m/S 732 mmHg 85%
    14:00 0°C° 0.2 mm 5 m/S 732 mmHg 86%
    15:00 0°C° 0.3 mm 5 m/S 731 mmHg 86%
    16:00 0°C° 0.3 mm 5 m/S 731 mmHg 86%
    17:00 0°C° 0.3 mm 5 m/S 731 mmHg 86%
    18:00 -1°C° 0.2 mm 5 m/S 731 mmHg 82%
    19:00 -2°C° 0.2 mm 5 m/S 731 mmHg 79%
    20:00 -4°C° 0.2 mm 5 m/S 732 mmHg 76%
    21:00 -4°C° 0.1 mm 5 m/S 732 mmHg 77%
    22:00 -5°C° 0.1 mm 5 m/S 732 mmHg 79%
    23:00 -5°C° 0.1 mm 5 m/S 732 mmHg 80%

    21 Februar, Donnerstag

    Zeit Temperatur Niederschläge Wind Luftdruck Luftfeuchtigkeit
    00:00 -5°C° 0.2 mm 5 m/S 732 mmHg 81%
    01:00 -6°C° 0.2 mm 6 m/S 733 mmHg 81%
    02:00 -6°C° 0.2 mm 6 m/S 733 mmHg 81%
    03:00 -6°C° 0.3 mm 6 m/S 733 mmHg 82%
    04:00 -6°C° 0.3 mm 6 m/S 733 mmHg 82%
    05:00 -6°C° 0.3 mm 6 m/S 733 mmHg 83%
    06:00 -6°C° 0.2 mm 6 m/S 734 mmHg 80%
    07:00 -8°C° 0.2 mm 6 m/S 734 mmHg 76%
    08:00 -8°C° 0.2 mm 7 m/S 735 mmHg 73%
    09:00 -8°C° 0.1 mm 7 m/S 736 mmHg 73%
    10:00 -8°C° 0.1 mm 7 m/S 737 mmHg 73%
    11:00 -8°C° 0.1 mm 7 m/S 738 mmHg 74%
    12:00 -8°C° 0.1 mm 7 m/S 739 mmHg 73%
    13:00 -8°C° 0.1 mm 7 m/S 739 mmHg 72%
    14:00 -8°C° 0.1 mm 7 m/S 740 mmHg 72%
    15:00 -8°C° 0.1 mm 6 m/S 741 mmHg 73%
    16:00 -9°C° 0.1 mm 6 m/S 742 mmHg 73%
    17:00 -9°C° 0.1 mm 6 m/S 743 mmHg 74%
    18:00 -10°C° 0 mm 6 m/S 744 mmHg 74%
    19:00 -10°C° 0 mm 6 m/S 745 mmHg 73%
    20:00 -11°C° 0 mm 6 m/S 746 mmHg 73%
    21:00 -11°C° 0 mm 5 m/S 746 mmHg 73%
    22:00 -12°C° 0 mm 5 m/S 747 mmHg 74%
    23:00 -12°C° 0 mm 5 m/S 747 mmHg 74%

    22 Februar, Freitag

    Zeit Temperatur Niederschläge Wind Luftdruck Luftfeuchtigkeit
    00:00 -12°C° 0 mm 5 m/S 748 mmHg 74%
    01:00 -13°C° 0 mm 5 m/S 748 mmHg 75%
    02:00 -13°C° 0 mm 5 m/S 749 mmHg 75%
    03:00 -13°C° 0 mm 5 m/S 750 mmHg 76%
    04:00 -14°C° 0 mm 5 m/S 751 mmHg 77%
    05:00 -14°C° 0 mm 5 m/S 751 mmHg 78%
    06:00 -14°C° 0 mm 4 m/S 752 mmHg 76%
    07:00 -14°C° 0 mm 4 m/S 753 mmHg 74%
    08:00 -14°C° 0 mm 4 m/S 754 mmHg 72%
    09:00 -12°C° 0 mm 4 m/S 755 mmHg 69%
    10:00 -10°C° 0 mm 4 m/S 755 mmHg 66%
    11:00 -9°C° 0 mm 4 m/S 756 mmHg 63%
    12:00 -9°C° 0 mm 4 m/S 756 mmHg 63%
    13:00 -8°C° 0 mm 4 m/S 757 mmHg 62%
    14:00 -7°C° 0 mm 4 m/S 757 mmHg 61%
    15:00 -7°C° 0 mm 3 m/S 757 mmHg 65%
    16:00 -8°C° 0 mm 3 m/S 757 mmHg 69%
    17:00 -7°C° 0 mm 2 m/S 758 mmHg 73%
    18:00 -8°C° 0 mm 2 m/S 758 mmHg 76%
    19:00 -8°C° 0 mm 2 m/S 758 mmHg 79%
    20:00 -9°C° 0 mm 2 m/S 758 mmHg 82%
    21:00 -9°C° 0 mm 2 m/S 758 mmHg 82%
    22:00 -9°C° 0 mm 2 m/S 758 mmHg 83%
    23:00 -9°C° 0 mm 2 m/S 758 mmHg 84%

    23 Februar, Samstag

    Zeit Temperatur Niederschläge Wind Luftdruck Luftfeuchtigkeit
    00:00 -9°C° 0 mm 2 m/S 758 mmHg 83%
    01:00 -10°C° 0 mm 2 m/S 758 mmHg 82%
    02:00 -9°C° 0 mm 1 m/S 757 mmHg 82%
    03:00 -9°C° 0 mm 2 m/S 757 mmHg 79%
    04:00 -8°C° 0 mm 2 m/S 756 mmHg 77%
    05:00 -8°C° 0 mm 2 m/S 756 mmHg 74%
    06:00 -8°C° 0.3 mm 2 m/S 755 mmHg 81%
    07:00 -9°C° 0.3 mm 3 m/S 754 mmHg 87%
    08:00 -9°C° 0.3 mm 3 m/S 753 mmHg 94%
    09:00 -8°C° 0.9 mm 3 m/S 753 mmHg 94%
    10:00 -8°C° 0.9 mm 3 m/S 752 mmHg 94%
    11:00 -7°C° 0.9 mm 3 m/S 752 mmHg 94%
    12:00 -7°C° 0.3 mm 3 m/S 751 mmHg 93%
    13:00 -6°C° 0.3 mm 3 m/S 750 mmHg 93%
    14:00 -5°C° 0.3 mm 3 m/S 750 mmHg 92%
    15:00 -5°C° 0.1 mm 3 m/S 750 mmHg 93%
    16:00 -4°C° 0.1 mm 3 m/S 750 mmHg 94%
    17:00 -3°C° 0.1 mm 2 m/S 749 mmHg 94%
    18:00 -2°C° 0.1 mm 2 m/S 750 mmHg 95%
    19:00 -2°C° 0.1 mm 2 m/S 750 mmHg 96%
    20:00 -2°C° 0.1 mm 2 m/S 750 mmHg 97%
    21:00 -1°C° 0.1 mm 2 m/S 750 mmHg 97%
    22:00 -1°C° 0.1 mm 2 m/S 750 mmHg 97%
    23:00 -1°C° 0.1 mm 2 m/S 750 mmHg 98%
    Mehr zeigen